When you browse on this site, cookies collect data to enhance your experience and personalize the content and advertising you see.
Visit our Privacy Policy to learn more. By continuing to use the site, you agree to this use of cookies and data.
EN

Hourly Weather Haradok

Today, 12 August, Wednesday

Time Temperature Precipitation Wind Pressure Humidity
00:00 +10°C° 0 mm 2 mps 751 mmHg 90%
01:00 +10°C° 0 mm 2 mps 751 mmHg 91%
02:00 +9°C° 0 mm 2 mps 751 mmHg 95%
03:00 +9°C° 0 mm 3 mps 751 mmHg 94%
04:00 +9°C° 0 mm 3 mps 751 mmHg 94%
05:00 +9°C° 0 mm 3 mps 751 mmHg 94%
06:00 +11°C° 0 mm 3 mps 751 mmHg 89%
07:00 +12°C° 0 mm 3 mps 751 mmHg 83%
08:00 +14°C° 0 mm 4 mps 751 mmHg 77%
09:00 +15°C° 0.1 mm 4 mps 751 mmHg 71%
10:00 +17°C° 0.1 mm 4 mps 751 mmHg 66%
11:00 +17°C° 0.1 mm 5 mps 751 mmHg 61%
12:00 +18°C° 0.1 mm 4 mps 751 mmHg 61%
13:00 +18°C° 0.1 mm 4 mps 751 mmHg 61%
14:00 +18°C° 0.1 mm 4 mps 751 mmHg 61%
15:00 +18°C° 0 mm 4 mps 751 mmHg 62%
16:00 +18°C° 0 mm 3 mps 751 mmHg 63%
17:00 +18°C° 0 mm 3 mps 751 mmHg 63%
18:00 +17°C° 0 mm 3 mps 751 mmHg 69%
19:00 +14°C° 0 mm 3 mps 751 mmHg 74%
20:00 +12°C° 0 mm 3 mps 751 mmHg 80%
21:00 +12°C° 0 mm 3 mps 751 mmHg 83%
22:00 +12°C° 0 mm 2 mps 751 mmHg 86%
23:00 +10°C° 0 mm 2 mps 751 mmHg 89%

Tomorrow, 13 August, Thursday

Time Temperature Precipitation Wind Pressure Humidity
00:00 +9°C° 0 mm 2 mps 751 mmHg 89%
01:00 +9°C° 0 mm 2 mps 751 mmHg 90%
02:00 +9°C° 0 mm 2 mps 751 mmHg 90%
03:00 +9°C° 0 mm 2 mps 751 mmHg 90%
04:00 +8°C° 0 mm 2 mps 751 mmHg 90%
05:00 +8°C° 0 mm 2 mps 751 mmHg 89%
06:00 +10°C° 0 mm 2 mps 751 mmHg 83%
07:00 +13°C° 0 mm 2 mps 751 mmHg 76%
08:00 +15°C° 0 mm 2 mps 751 mmHg 70%
09:00 +14°C° 0 mm 3 mps 751 mmHg 65%
10:00 +16°C° 0 mm 3 mps 751 mmHg 61%
11:00 +17°C° 0 mm 3 mps 750 mmHg 57%
12:00 +17°C° 0 mm 3 mps 750 mmHg 56%
13:00 +18°C° 0 mm 3 mps 750 mmHg 55%
14:00 +18°C° 0 mm 3 mps 750 mmHg 54%
15:00 +18°C° 0 mm 3 mps 750 mmHg 57%
16:00 +18°C° 0 mm 2 mps 750 mmHg 60%
17:00 +17°C° 0 mm 2 mps 750 mmHg 63%
18:00 +16°C° 0 mm 2 mps 750 mmHg 69%
19:00 +15°C° 0 mm 2 mps 750 mmHg 75%
20:00 +14°C° 0 mm 1 mps 750 mmHg 80%
21:00 +13°C° 0 mm 1 mps 750 mmHg 83%
22:00 +12°C° 0 mm 1 mps 750 mmHg 85%
23:00 +11°C° 0 mm 1 mps 750 mmHg 88%

Day after tomorrow, 14 August, Friday

Time Temperature Precipitation Wind Pressure Humidity
00:00 +11°C° 0 mm 1 mps 750 mmHg 88%
01:00 +10°C° 0 mm 1 mps 751 mmHg 88%
02:00 +10°C° 0 mm 1 mps 751 mmHg 88%
03:00 +10°C° 0 mm 1 mps 751 mmHg 88%
04:00 +10°C° 0 mm 1 mps 751 mmHg 87%
05:00 +9°C° 0 mm 0 mps 751 mmHg 87%
06:00 +12°C° 0 mm 1 mps 751 mmHg 80%
07:00 +14°C° 0 mm 1 mps 751 mmHg 74%
08:00 +16°C° 0 mm 1 mps 751 mmHg 68%
09:00 +18°C° 0 mm 1 mps 751 mmHg 63%
10:00 +19°C° 0 mm 1 mps 751 mmHg 58%
11:00 +21°C° 0 mm 1 mps 751 mmHg 54%
12:00 +21°C° 0 mm 1 mps 751 mmHg 54%
13:00 +21°C° 0 mm 1 mps 751 mmHg 54%
14:00 +21°C° 0 mm 1 mps 751 mmHg 54%
15:00 +21°C° 0 mm 1 mps 751 mmHg 56%
16:00 +21°C° 0 mm 1 mps 751 mmHg 58%
17:00 +19°C° 0 mm 0 mps 750 mmHg 61%
18:00 +17°C° 0 mm 0 mps 750 mmHg 66%
19:00 +16°C° 0 mm 1 mps 750 mmHg 72%
20:00 +15°C° 0 mm 1 mps 750 mmHg 77%
21:00 +14°C° 0 mm 1 mps 751 mmHg 79%
22:00 +14°C° 0 mm 1 mps 751 mmHg 82%
23:00 +13°C° 0 mm 1 mps 751 mmHg 84%

15 August, Saturday

Time Temperature Precipitation Wind Pressure Humidity
00:00 +13°C° 0 mm 1 mps 751 mmHg 85%
01:00 +12°C° 0 mm 1 mps 751 mmHg 87%
02:00 +12°C° 0 mm 2 mps 751 mmHg 88%
03:00 +12°C° 0 mm 2 mps 751 mmHg 90%
04:00 +12°C° 0 mm 2 mps 751 mmHg 91%
05:00 +12°C° 0 mm 2 mps 751 mmHg 93%
06:00 +14°C° 0 mm 2 mps 751 mmHg 87%
07:00 +15°C° 0 mm 2 mps 751 mmHg 81%
08:00 +17°C° 0 mm 2 mps 751 mmHg 76%
09:00 +19°C° 0.1 mm 2 mps 751 mmHg 71%
10:00 +20°C° 0.1 mm 2 mps 751 mmHg 67%
11:00 +23°C° 0.1 mm 2 mps 751 mmHg 62%
12:00 +23°C° 0.1 mm 2 mps 751 mmHg 60%
13:00 +24°C° 0.1 mm 3 mps 751 mmHg 58%
14:00 +25°C° 0.1 mm 3 mps 750 mmHg 55%
15:00 +24°C° 0.3 mm 2 mps 750 mmHg 60%
16:00 +24°C° 0.3 mm 2 mps 750 mmHg 65%
17:00 +23°C° 0.3 mm 2 mps 750 mmHg 70%
18:00 +21°C° 0.1 mm 2 mps 750 mmHg 76%
19:00 +20°C° 0.1 mm 1 mps 750 mmHg 81%
20:00 +18°C° 0.1 mm 1 mps 750 mmHg 86%
21:00 +18°C° 0 mm 1 mps 750 mmHg 88%
22:00 +16°C° 0 mm 1 mps 750 mmHg 90%
23:00 +16°C° 0 mm 1 mps 750 mmHg 92%

16 August, Sunday

Time Temperature Precipitation Wind Pressure Humidity
00:00 +15°C° 0 mm 1 mps 750 mmHg 92%
01:00 +15°C° 0 mm 1 mps 750 mmHg 93%
02:00 +15°C° 0 mm 1 mps 750 mmHg 94%
03:00 +15°C° 0 mm 1 mps 750 mmHg 94%
04:00 +14°C° 0 mm 2 mps 750 mmHg 94%
05:00 +14°C° 0 mm 2 mps 750 mmHg 94%
06:00 +16°C° 0 mm 2 mps 750 mmHg 90%
07:00 +17°C° 0 mm 2 mps 750 mmHg 86%
08:00 +19°C° 0 mm 2 mps 750 mmHg 81%
09:00 +21°C° 0 mm 2 mps 750 mmHg 74%
10:00 +22°C° 0 mm 3 mps 750 mmHg 66%
11:00 +25°C° 0 mm 3 mps 751 mmHg 59%
12:00 +26°C° 0 mm 3 mps 750 mmHg 57%
13:00 +27°C° 0 mm 3 mps 750 mmHg 54%
14:00 +27°C° 0 mm 3 mps 750 mmHg 52%
15:00 +27°C° 0 mm 2 mps 750 mmHg 56%
16:00 +26°C° 0 mm 2 mps 750 mmHg 59%
17:00 +26°C° 0 mm 2 mps 750 mmHg 63%
18:00 +24°C° 0 mm 2 mps 750 mmHg 67%
19:00 +21°C° 0 mm 2 mps 750 mmHg 72%
20:00 +20°C° 0 mm 2 mps 750 mmHg 77%
21:00 +19°C° 0 mm 2 mps 750 mmHg 79%
22:00 +18°C° 0 mm 2 mps 750 mmHg 82%
23:00 +19°C° 0 mm 1 mps 750 mmHg 85%

17 August, Monday

Time Temperature Precipitation Wind Pressure Humidity
00:00 +18°C° 0 mm 1 mps 750 mmHg 86%
01:00 +18°C° 0 mm 1 mps 750 mmHg 88%
02:00 +16°C° 0 mm 1 mps 750 mmHg 89%
03:00 +16°C° 0 mm 1 mps 750 mmHg 90%
04:00 +16°C° 0 mm 1 mps 750 mmHg 91%
05:00 +16°C° 0 mm 1 mps 750 mmHg 92%
06:00 +19°C° 0 mm 1 mps 750 mmHg 86%
07:00 +20°C° 0 mm 1 mps 750 mmHg 80%
08:00 +22°C° 0 mm 1 mps 750 mmHg 73%
09:00 +24°C° 0 mm 1 mps 750 mmHg 67%
10:00 +25°C° 0 mm 1 mps 750 mmHg 61%
11:00 +27°C° 0 mm 2 mps 749 mmHg 55%
12:00 +27°C° 0 mm 2 mps 749 mmHg 52%
13:00 +28°C° 0 mm 1 mps 749 mmHg 49%
14:00 +28°C° 0 mm 1 mps 748 mmHg 46%
15:00 +27°C° 0.1 mm 2 mps 748 mmHg 52%
16:00 +27°C° 0.1 mm 2 mps 748 mmHg 58%
17:00 +26°C° 0.1 mm 2 mps 747 mmHg 64%
18:00 +24°C° 0.2 mm 2 mps 747 mmHg 70%
19:00 +21°C° 0.2 mm 2 mps 747 mmHg 76%
20:00 +20°C° 0.2 mm 2 mps 747 mmHg 83%
21:00 +20°C° 0.2 mm 1 mps 747 mmHg 84%
22:00 +20°C° 0.2 mm 1 mps 746 mmHg 86%
23:00 +20°C° 0.2 mm 1 mps 746 mmHg 88%
Show more